When you browse on this site, cookies collect data to enhance your experience and personalize the content and advertising you see.
Visit our Privacy Policy to learn more. By continuing to use the site, you agree to this use of cookies and data.
  • In Slovakia
  • List of Countries
  • For 7 days
  • Water Temperature
  • Satellite Maps
  • Weather Map
  • Weather Widgets
  • user-avatar
    Login

    Hourly Weather Satif

    Today, 25 March, Monday

    Time Temperature Precipitation Wind Pressure Humidity
    00:00 +8°C° 0 mm 3 mps 674 mmHg 65%
    01:00 +8°C° 0 mm 3 mps 674 mmHg 67%
    02:00 +7°C° 0 mm 2 mps 673 mmHg 69%
    03:00 +7°C° 0 mm 2 mps 673 mmHg 71%
    04:00 +7°C° 0 mm 2 mps 673 mmHg 72%
    05:00 +7°C° 0 mm 2 mps 673 mmHg 73%
    06:00 +7°C° 0 mm 2 mps 673 mmHg 74%
    07:00 +9°C° 0 mm 2 mps 673 mmHg 66%
    08:00 +12°C° 0 mm 2 mps 674 mmHg 58%
    09:00 +13°C° 0 mm 3 mps 674 mmHg 50%
    10:00 +14°C° 0 mm 3 mps 674 mmHg 47%
    11:00 +15°C° 0 mm 4 mps 674 mmHg 44%
    12:00 +17°C° 0 mm 4 mps 674 mmHg 41%
    13:00 +15°C° 0.4 mm 4 mps 674 mmHg 43%
    14:00 +15°C° 0.4 mm 4 mps 673 mmHg 45%
    15:00 +15°C° 0.4 mm 4 mps 672 mmHg 46%
    16:00 +14°C° 0.4 mm 3 mps 672 mmHg 53%
    17:00 +13°C° 0.4 mm 2 mps 671 mmHg 60%
    18:00 +12°C° 0.4 mm 2 mps 671 mmHg 66%
    19:00 +11°C° 0.1 mm 1 mps 671 mmHg 70%
    20:00 +11°C° 0.1 mm 1 mps 671 mmHg 73%
    21:00 +9°C° 0.1 mm 0 mps 671 mmHg 77%
    22:00 +8°C° 0 mm 0 mps 671 mmHg 78%
    23:00 +8°C° 0 mm 0 mps 671 mmHg 79%

    Tomorrow, 26 March, Tuesday

    Time Temperature Precipitation Wind Pressure Humidity
    00:00 +8°C° 0 mm 0 mps 670 mmHg 80%
    01:00 +7°C° 0 mm 0 mps 670 mmHg 80%
    02:00 +7°C° 0 mm 0 mps 670 mmHg 80%
    03:00 +7°C° 0 mm 0 mps 670 mmHg 80%
    04:00 +8°C° 0 mm 1 mps 670 mmHg 83%
    05:00 +7°C° 0 mm 1 mps 670 mmHg 85%
    06:00 +6°C° 0 mm 2 mps 670 mmHg 87%
    07:00 +7°C° 0 mm 2 mps 670 mmHg 84%
    08:00 +8°C° 0 mm 3 mps 671 mmHg 81%
    09:00 +9°C° 0 mm 3 mps 671 mmHg 79%
    10:00 +10°C° 0 mm 3 mps 671 mmHg 77%
    11:00 +10°C° 0 mm 3 mps 672 mmHg 75%
    12:00 +10°C° 0 mm 3 mps 672 mmHg 73%
    13:00 +10°C° 0.6 mm 3 mps 671 mmHg 75%
    14:00 +9°C° 0.6 mm 3 mps 671 mmHg 78%
    15:00 +9°C° 0.6 mm 3 mps 671 mmHg 80%
    16:00 +8°C° 0.8 mm 3 mps 671 mmHg 82%
    17:00 +7°C° 0.8 mm 3 mps 671 mmHg 83%
    18:00 +5°C° 0.8 mm 3 mps 671 mmHg 85%
    19:00 +5°C° 0.2 mm 3 mps 671 mmHg 85%
    20:00 +4°C° 0.2 mm 3 mps 671 mmHg 85%
    21:00 +4°C° 0.2 mm 3 mps 672 mmHg 86%
    22:00 +4°C° 0.1 mm 3 mps 672 mmHg 85%
    23:00 +4°C° 0.1 mm 3 mps 672 mmHg 85%

    Day after tomorrow, 27 March, Wednesday

    Time Temperature Precipitation Wind Pressure Humidity
    00:00 +3°C° 0.1 mm 3 mps 672 mmHg 85%
    01:00 +3°C° 0 mm 3 mps 671 mmHg 85%
    02:00 +3°C° 0 mm 3 mps 671 mmHg 86%
    03:00 +3°C° 0 mm 3 mps 671 mmHg 86%
    04:00 +3°C° 0 mm 3 mps 671 mmHg 86%
    05:00 +4°C° 0 mm 2 mps 671 mmHg 87%
    06:00 +4°C° 0 mm 2 mps 671 mmHg 87%
    07:00 +4°C° 0.1 mm 2 mps 671 mmHg 85%
    08:00 +4°C° 0.1 mm 2 mps 671 mmHg 82%
    09:00 +4°C° 0.1 mm 3 mps 671 mmHg 80%
    10:00 +4°C° 0.1 mm 3 mps 671 mmHg 77%
    11:00 +5°C° 0.1 mm 3 mps 671 mmHg 74%
    12:00 +5°C° 0.1 mm 3 mps 671 mmHg 71%
    13:00 +7°C° 0.1 mm 3 mps 671 mmHg 71%
    14:00 +7°C° 0.1 mm 3 mps 671 mmHg 71%
    15:00 +7°C° 0.1 mm 3 mps 671 mmHg 71%
    16:00 +7°C° 0 mm 3 mps 671 mmHg 75%
    17:00 +5°C° 0 mm 3 mps 671 mmHg 79%
    18:00 +5°C° 0 mm 3 mps 671 mmHg 83%
    19:00 +5°C° 0.1 mm 3 mps 671 mmHg 86%
    20:00 +5°C° 0.1 mm 3 mps 672 mmHg 89%
    21:00 +5°C° 0.1 mm 2 mps 672 mmHg 92%
    22:00 +5°C° 0 mm 2 mps 672 mmHg 93%
    23:00 +5°C° 0 mm 2 mps 672 mmHg 94%

    28 March, Thursday

    Time Temperature Precipitation Wind Pressure Humidity
    00:00 +4°C° 0 mm 2 mps 672 mmHg 96%
    01:00 +4°C° 0 mm 2 mps 672 mmHg 95%
    02:00 +5°C° 0 mm 2 mps 672 mmHg 94%
    03:00 +5°C° 0 mm 2 mps 672 mmHg 93%
    04:00 +4°C° 0 mm 2 mps 672 mmHg 94%
    05:00 +4°C° 0 mm 2 mps 672 mmHg 94%
    06:00 +5°C° 0 mm 1 mps 672 mmHg 95%
    07:00 +5°C° 0 mm 2 mps 673 mmHg 88%
    08:00 +6°C° 0 mm 2 mps 673 mmHg 81%
    09:00 +7°C° 0 mm 3 mps 674 mmHg 74%
    10:00 +8°C° 0.1 mm 3 mps 674 mmHg 71%
    11:00 +9°C° 0.1 mm 3 mps 674 mmHg 67%
    12:00 +9°C° 0.1 mm 3 mps 674 mmHg 64%
    13:00 +10°C° 0.1 mm 3 mps 674 mmHg 64%
    14:00 +10°C° 0.1 mm 3 mps 674 mmHg 63%
    15:00 +10°C° 0.1 mm 3 mps 674 mmHg 62%
    16:00 +9°C° 0.2 mm 3 mps 674 mmHg 69%
    17:00 +8°C° 0.2 mm 3 mps 674 mmHg 76%
    18:00 +7°C° 0.2 mm 3 mps 674 mmHg 83%
    19:00 +7°C° 0 mm 3 mps 674 mmHg 86%
    20:00 +6°C° 0 mm 2 mps 675 mmHg 89%
    21:00 +6°C° 0 mm 2 mps 675 mmHg 92%
    22:00 +6°C° 0 mm 1 mps 675 mmHg 92%
    23:00 +6°C° 0 mm 1 mps 675 mmHg 93%

    29 March, Friday

    Time Temperature Precipitation Wind Pressure Humidity
    00:00 +5°C° 0 mm 1 mps 675 mmHg 94%
    01:00 +5°C° 0 mm 1 mps 674 mmHg 94%
    02:00 +5°C° 0 mm 1 mps 674 mmHg 94%
    03:00 +4°C° 0 mm 1 mps 674 mmHg 94%
    04:00 +4°C° 0 mm 1 mps 674 mmHg 93%
    05:00 +4°C° 0 mm 1 mps 674 mmHg 93%
    06:00 +4°C° 0 mm 1 mps 675 mmHg 93%
    07:00 +6°C° 0 mm 1 mps 675 mmHg 83%
    08:00 +8°C° 0 mm 1 mps 676 mmHg 74%
    09:00 +10°C° 0 mm 1 mps 677 mmHg 65%
    10:00 +11°C° 0.1 mm 1 mps 677 mmHg 60%
    11:00 +12°C° 0.1 mm 1 mps 677 mmHg 55%
    12:00 +13°C° 0.1 mm 1 mps 677 mmHg 50%
    13:00 +13°C° 0.1 mm 1 mps 677 mmHg 50%
    14:00 +13°C° 0.1 mm 2 mps 676 mmHg 51%
    15:00 +13°C° 0.1 mm 2 mps 676 mmHg 52%
    16:00 +12°C° 0.1 mm 2 mps 676 mmHg 57%
    17:00 +10°C° 0.1 mm 2 mps 676 mmHg 63%
    18:00 +9°C° 0.1 mm 2 mps 676 mmHg 68%
    19:00 +9°C° 0 mm 2 mps 676 mmHg 73%
    20:00 +8°C° 0 mm 2 mps 676 mmHg 78%
    21:00 +7°C° 0 mm 2 mps 676 mmHg 83%
    22:00 +7°C° 0 mm 2 mps 676 mmHg 85%
    23:00 +8°C° 0 mm 1 mps 676 mmHg 86%

    30 March, Saturday

    Time Temperature Precipitation Wind Pressure Humidity
    00:00 +7°C° 0 mm 1 mps 676 mmHg 88%
    01:00 +7°C° 0 mm 1 mps 675 mmHg 88%
    02:00 +7°C° 0 mm 1 mps 675 mmHg 89%
    03:00 +6°C° 0 mm 1 mps 675 mmHg 89%
    04:00 +5°C° 0 mm 2 mps 675 mmHg 89%
    05:00 +6°C° 0 mm 2 mps 675 mmHg 88%
    06:00 +6°C° 0 mm 2 mps 675 mmHg 88%
    07:00 +8°C° 0 mm 3 mps 676 mmHg 78%
    08:00 +10°C° 0 mm 3 mps 676 mmHg 67%
    09:00 +12°C° 0 mm 4 mps 677 mmHg 56%
    10:00 +13°C° 0 mm 4 mps 677 mmHg 52%
    11:00 +14°C° 0 mm 5 mps 677 mmHg 48%
    12:00 +15°C° 0 mm 5 mps 677 mmHg 45%
    13:00 +15°C° 0 mm 4 mps 676 mmHg 44%
    14:00 +15°C° 0 mm 4 mps 676 mmHg 44%
    15:00 +16°C° 0 mm 3 mps 675 mmHg 44%
    16:00 +14°C° 0 mm 4 mps 675 mmHg 49%
    17:00 +13°C° 0 mm 4 mps 675 mmHg 53%
    18:00 +12°C° 0 mm 5 mps 675 mmHg 58%
    19:00 +11°C° 0 mm 4 mps 675 mmHg 61%
    20:00 +10°C° 0 mm 3 mps 675 mmHg 64%
    21:00 +10°C° 0 mm 2 mps 674 mmHg 66%
    22:00 +9°C° 0 mm 2 mps 674 mmHg 67%
    23:00 +9°C° 0 mm 2 mps 674 mmHg 68%
    Show more